Douglas Bisbee, AZ

10:09 AM MST on December 13, 2017 (GMT -0700)
Bisbee Douglas International

Weather History for KDUG - September, 2013

Change the Weather History Date:

Thursday, September 26, 2013

  Actual Average Record
Temperature  
Mean Temperature 75 °F 71 °F  
Max Temperature 87 °F 87 °F 98 °F (2005)
Min Temperature 63 °F 56 °F 44 °F (2017)
Degree Days  
Heating Degree Days 0 0  
Month to date heating degree days 0 0  
Since 1 July heating degree days 0 0  
Cooling Degree Days 10 6  
Month to date cooling degree days 268 258  
Year to date cooling degree days 1808 1728  
Growing Degree Days 24 (Base 50)    
Moisture  
Dew Point 39 °F    
Average Humidity 38    
Maximum Humidity 58    
Minimum Humidity 18    
Precipitation  
Precipitation 0.00 in 0.04 in 0.61 in (1977)
Month to date precipitation 2.16 1.37  
Year to date precipitation 17.11 10.38  
Snow  
Snow 0.00 in - - ()
Month to date snowfall 0.0  
Snow Depth 0.00 in    
Sea Level Pressure  
Sea Level Pressure 29.70 in    
Wind  
Wind Speed 8 mph (SSW)    
Max Wind Speed 25 mph    
Max Gust Speed 31 mph    
Visibility 10 miles    
Events      
T = Trace of Precipitation, MM = Missing Value Source: NWS Daily Summary

Daily Weather History Graph

Daily Weather History Graph

Search for Another Location

Airport or City:

Trip Planner

Search our weather history database for the weather conditions in past years. The results will help you decide how hot, cold, wet, or windy it might be!

Date:

Astronomy

Sep. 26, 2013 Rise Set
Actual Time 6:09 AM MST 6:09 PM MST
Civil Twilight 5:45 AM MST 6:33 PM MST
Nautical Twilight 5:16 AM MST 7:01 PM MST
Astronomical Twilight 4:48 AM MST 7:30 PM MST
Moon 11:28 PM MST (9/26) 12:45 PM MST (9/26)
Length of Visible Light 12h 48m
Length of Day
12h 00m
Waning Gibbous, 53% of the Moon is Illuminated
Sep 26
Waning Gibbous
Sep 26
Last Quarter
Oct 4
New
Oct 11
First Quarter
Oct 18
Full

Hourly Weather History & Observations

Time (MST) Temp. Dew Point Humidity Pressure Visibility Wind Dir Wind Speed Gust Speed Precip Events Conditions
12:56 AM 68.0 °F 30.0 °F 24% 29.69 in 10.0 mi Calm Calm - N/A   Partly Cloudy
1:56 AM 64.9 °F 30.0 °F 27% 29.69 in 10.0 mi SW 3.5 mph - N/A   Clear
2:56 AM 66.9 °F 30.9 °F 26% 29.68 in 10.0 mi SSW 8.1 mph - N/A   Overcast
3:56 AM 68.0 °F 30.0 °F 24% 29.68 in 10.0 mi SSW 8.1 mph - N/A   Overcast
4:56 AM 64.9 °F 30.9 °F 28% 29.70 in 10.0 mi Calm Calm - N/A   Clear
5:56 AM 63.0 °F 36.0 °F 37% 29.73 in 10.0 mi South 3.5 mph - N/A   Overcast
6:56 AM 64.0 °F 37.9 °F 38% 29.75 in 10.0 mi Calm Calm - N/A   Overcast
7:56 AM 70.0 °F 34.0 °F 27% 29.76 in 10.0 mi Calm Calm - N/A   Clear
8:56 AM 75.9 °F 32.0 °F 20% 29.76 in 10.0 mi SSW 4.6 mph - N/A   Clear
9:56 AM 79.0 °F 34.0 °F 20% 29.75 in 10.0 mi South 6.9 mph - N/A   Partly Cloudy
10:56 AM 82.0 °F 35.1 °F 18% 29.72 in 10.0 mi WSW 17.3 mph 21.9 mph N/A   Scattered Clouds
11:56 AM 84.0 °F 37.0 °F 19% 29.71 in 10.0 mi South 12.7 mph 19.6 mph N/A   Clear
12:56 PM 86.0 °F 37.9 °F 18% 29.68 in 10.0 mi SW 13.8 mph 23.0 mph N/A   Partly Cloudy
1:56 PM 86.0 °F 37.0 °F 18% 29.67 in 10.0 mi SW 17.3 mph 25.3 mph N/A   Partly Cloudy
2:56 PM 84.9 °F 39.9 °F 20% 29.67 in 10.0 mi SW 18.4 mph 28.8 mph N/A   Clear
3:56 PM 82.9 °F 41.0 °F 23% 29.65 in 10.0 mi South 19.6 mph 24.2 mph N/A   Scattered Clouds
4:56 PM 82.0 °F 42.1 °F 24% 29.65 in 10.0 mi SSW 13.8 mph - N/A   Overcast
5:56 PM 79.0 °F 43.0 °F 28% 29.67 in 10.0 mi SW 9.2 mph - N/A   Mostly Cloudy
6:56 PM 75.9 °F 45.0 °F 33% 29.69 in 10.0 mi SW 4.6 mph - N/A   Overcast
7:56 PM 72.0 °F 46.9 °F 41% 29.70 in 10.0 mi SSW 4.6 mph - N/A   Mostly Cloudy
8:56 PM 70.0 °F 48.9 °F 47% 29.70 in 10.0 mi Calm Calm - N/A   Partly Cloudy
9:56 PM 69.1 °F 50.0 °F 51% 29.71 in 10.0 mi Calm Calm - N/A   Mostly Cloudy
10:56 PM 66.9 °F 51.1 °F 57% 29.70 in 10.0 mi SSE 6.9 mph - N/A   Mostly Cloudy
11:56 PM 66.0 °F 53.1 °F 63% 29.70 in 10.0 mi South 9.2 mph - N/A   Overcast